Regional Weather Roundup
Issued by NWS

Home | Current Version | Previous Version | Text Only | Print | Product List | Glossary On
Versions: 1 2 3 4 5 6 7 8 9 10 11 12 13 14 15 16 17 18 19 20 21 22 23 24 25 26 27 28 29 30 31 32 33 34 35 36 37 38 39 40 41 42 43 44 45 46 47 48 49 50
342
ASUS46 KLOX 012313
RWRCA

SOUTHERN CALIFORNIA WEATHER ROUNDUP
NATIONAL WEATHER SERVICE OXNARD CALIFORNIA
400 PM PDT SUN MAY 01 2016

NOTE: "FAIR" INDICATES FEW OR NO CLOUDS BELOW 12,000 FEET WITH NO
SIGNIFICANT WEATHER AND/OR OBSTRUCTIONS TO VISIBILITY.

  -  STATIONS PRECEEDED BY AN ASTERISK (*) ARE NOT NWS OR FAA
     STATIONS AND ARE NOT SUBJECT TO NWS AND FAA QUALITY CONTROL.

CAZ041-042-087-020000-
LA AND ORANGE COUNTY COASTAL AREAS


CITY           SKY/WX    TMP DP  RH WIND       PRES   REMARKS
L.A. DOWNTOWN  SUNNY     69  53  56 VRB6      29.90F
L.A. AIRPORT   MOSUNNY   66  54  65 W15       29.92S
LONG BEACH     SUNNY     66  52  60 S8        29.91F

CITY           SKY/WX    TMP DP  RH WIND       PRES   REMARKS
FULLERTON      SUNNY     72  51  47 VRB6      29.90F
*GETTY CENTER    N/A     68  52  56 SW9         N/A
HAWTHORNE      SUNNY     70  51  51 W15       29.91F
*LOS ALAMITOS  FAIR      69  53  56 SW9       29.91F
*REDONDO BEACH   N/A     68  54  61 SW2       29.91S
SANTA ANA      MOSUNNY   67  52  58 S13       29.91F
STA MONICA APT SUNNY     65  52  62 W8        29.92F
*STA MON PIER    N/A     60  56  84 W13       29.86S
TORRANCE       MOSUNNY   73  52  46 E9        29.93S

$$

CAZ547-548-048-020000-
LA COUNTY VALLEYS AND INLAND EMPIRE


CITY           SKY/WX    TMP DP  RH WIND       PRES   REMARKS
BURBANK        SUNNY     71  51  49 S9        29.89F
VAN NUYS       MOSUNNY   73  50  44 S10       29.89F

CITY           SKY/WX    TMP DP  RH WIND       PRES   REMARKS
CORONA AIRPORT CLEAR     74  54  49 W14       29.89F
*CHATSWORTH      N/A     74  53  47 SE1       29.89F
CHINO            N/A     77  50  38 SW12      29.90F
*CLAREMONT       N/A     73  52  46 SW8         N/A
MARCH AFB      MOSUNNY   75  49  40 NW10      29.89S
*NORTHRIDGE      N/A     73  48  40 E3G9        N/A
ONTARIO        MOSUNNY   74  49  41 SW13      29.89S
*PASADENA        N/A     75  55  50 E3          N/A
POMONA         SUNNY     72  50  46 W12G17    29.92F
RIVERSIDE      SUNNY     76  50  40 VRB7      29.88F
SAN BERNARDINO MOSUNNY   77  45  31 W5        29.89F
*SAN GABRIEL     N/A     72  53  51 SW12      29.96S
*WHITEMAN AP   SUNNY     72  50  46 SE7       29.93
*WOODLAND HILL   N/A     72  50  46 S7          N/A

$$

CAZ054-055-020000-
LA AND SAN BERNARDINO COUNTY MOUNTAINS


CITY           SKY/WX    TMP DP  RH WIND       PRES   REMARKS
*ACTON           N/A     74  45  35 SW9         N/A
*BIG BEAR AIRP CLOUDY    46  32  57 CALM      30.06R
*BIG PINES       N/A     58  26  29 S2          N/A
*CHILAO          N/A     60  42  51 S8          N/A
SANDBERG       CLOUDY    64  40  41 S14G20    29.99S
*WARM SPRINGS    N/A     70  52  53 S2G20       N/A

$$

CAZ028-029-059-060-099-020000-
ANTELOPE VALLEY AND SURROUNDING AREAS


CITY           SKY/WX    TMP DP  RH WIND       PRES   REMARKS
LANCASTER      PTSUNNY   78  29  16 SW5       29.88F
PALMDALE       MOSUNNY   77  28  16 NE6       29.89F

CITY           SKY/WX    TMP DP  RH WIND       PRES   REMARKS
29 PALMS       PTSUNNY   77  34  21 VRB3      29.94F
BARSTOW/DAGGET MOSUNNY   79  35  20 NE9       29.87F
BISHOP         PTSUNNY   68  29  23 SW12      29.92S
CHINA LAKE     CLOUDY    73  31  21 W15       29.90S
EDWARDS AFB    PTSUNNY   76  29  17 N8        29.86F
MOJAVE         MOSUNNY   75  34  22 W18       29.92S
NEEDLES        SUNNY     81  41  24 NE3       29.84F
VICTORVILLE    MOSUNNY   75  27  16 CALM      29.90S

$$

CAZ039-040-020000-
VENTURA AND SANTA BARBARA COUNTY COAST


CITY           SKY/WX    TMP DP  RH WIND       PRES   REMARKS
CAMARILLO      PTSUNNY   64  52  64 S14       29.93R
NWS OXNARD       N/A     65  53  64 SW6       29.92S
OXNARD AIRPORT MOSUNNY   63  53  70 SW10      29.93F
*POINT MUGU    PTSUNNY   64  54  69 SW10      29.94S
SBA APT/GOLETA SUNNY     62  54  74 SE12      29.92F
*SANTA BARBARA   N/A     70  54  56 W3        30.00F
*VENTURA         N/A     65  55  68 SW5       29.91S

$$

CAZ044-045-020000-
VENTURA COUNTY VALLEYS


CITY           SKY/WX    TMP DP  RH WIND       PRES   REMARKS
*SIMI VALLEY     N/A     71  56  59 W1        29.86R
*WESTLAKE VILL   N/A     70  55  57 CALM      29.89R
*OJAI            N/A     72  54  52 W2        29.86R
*FILLMORE        N/A     69  55  60 W3        29.80R

$$

CAZ053-020000-
VENTURA COUNTY MOUNTAINS


CITY           SKY/WX    TMP DP  RH WIND       PRES   REMARKS
*LOCKWOOD VLY    N/A     57  34  41 W5          N/A
*ROSE VALLEY     N/A     66  50  55 MISG        N/A

$$

CAZ034-035-036-020000-
CENTRAL COAST AND SANTA YNEZ VALLEY


CITY           SKY/WX    TMP DP  RH WIND       PRES   REMARKS
SAN LUIS OBISP SUNNY     71  51  49 SW12      29.89F
SANTA MARIA    SUNNY     70  53  54 N17       29.89S

CITY           SKY/WX    TMP DP  RH WIND       PRES   REMARKS
*CAL POLY SLO    N/A     73  54  49 W8          N/A
*LOMPOC        SUNNY     79  53  40 S9        29.86S
*PISMO BEACH     N/A     60  54  79 W7        29.93R
*SANTA YNEZ    FAIR      75  46  35 W13       29.87S

$$

CAZ037-038-051-020000-
SAN LUIS OBISPO COUNTY INTERIOR AND CUYAMA VALLEY


CITY           SKY/WX    TMP DP  RH WIND       PRES   REMARKS
*CUYAMA          N/A     71  40  32 N10       29.82R
PASO ROBLES    SUNNY     79  43  27 SW15      29.86S

$$

CAZ032-033-061-020000-
SOUTHERN DESERTS


CITY           SKY/WX    TMP DP  RH WIND       PRES   REMARKS
BLYTHE         SUNNY     81  41  24 CALM      29.83F
IMPERIAL       SUNNY     85  41  21 VRB3      29.81F
PALM SPRINGS   MOSUNNY   84  44  24 NW20      29.81F
THERMAL        MOSUNNY   87  41  19 SE15G22   29.77F

$$

ELSEWHERE ACROSS THE WESTERN UNITED STATES AND MEXICO


CITY           SKY/WX    TMP DP  RH WIND       PRES   REMARKS
DEATH VALLEY,    N/A     89  30  12 E2          N/A
DENVER, CO     CLOUDY    39  29  67 W7        30.27F WCI  34
GRAND CANYON,  PTSUNNY   52  35  52 NE8       30.04S
HONOLULU, HI   PTSUNNY   84  64  51 NE12G20   30.07F
KAHULUI, MAUI  MOSUNNY   84  68  58 NE24G31   30.04F
LAKE TAHOE, CA PTSUNNY   54  31  41 N6        30.02F
LAS VEGAS, NV  PTSUNNY   74  34  23 NE3       29.87S
MAMMOTH LAKES, LGT RAIN  47  32  55 W25G31    30.07R
MEXICO CITY, M MOSUNNY   84  25  11 NW8       30.14S
PHOENIX, AZ    PTSUNNY   75  40  28 SW5       29.84F
PORTLAND, OR   MOSUNNY   80  40  23 E13       29.93F
RENO, NV       PTSUNNY   67  25  20 S8        29.98F
SALT LAKE CITY PTSUNNY   64  25  22 E12       30.01F
SAN DIEGO, CA  MOSUNNY   66  51  58 SW9       29.95S
SAN FRANCISCO, MOSUNNY   78  46  32 SW12      29.83S
SAN JOSE, CA   MOSUNNY   80  46  30 S18       29.82R
SEATTLE, WA    SUNNY     77  44  30 N10       30.01F
TIJUANA, MEX   MOSUNNY   66  48  52 W12       29.95F

$$

STATION/POSITION TIME  TEMP    WIND        PRES    VSBY  WAVE
                       AIR SEA DIR/SP/G                  HT/PER
                 (UTC) (F)     (DEG/KT/KT) (MB)    (MI)  (FT/S)
POINT ARGUELLO B NOT AVBL
WEST SANTA BARBA 2250   55 54  190/  8/ 12 1012.7F         7/11
POINT CONCEPTION NOT AVBL
EAST SANTA BARBA 2200   58 57  240/  4/  6 1014.1R
SANTA MONICA BAY 2250   57 61  210/ 10/ 12 1013.6F         4/17



USA.gov is the U.S. government's official web portal to all federal, state and local government web resources and services.